sat.trackr.live / text

‹ back to catalog

STARLINK-36817

NORAD 67882 · 2026-035D

PAYLOAD ACTIVE UNKNOWN

§ Identity

Operator
Country
US
Launch date
2026-02-21
Launch site
AFWTR
Launch vehicle
Mass (kg)
RCS (m²)

Purposes: comms

External: N2YO · Heavens-Above · Gunter

§ Orbital elements

Epoch: 2026-05-25T01:44:03.697728Z

Period
93.91 min
Inclination
97.2855°
Eccentricity
0.0002175
Mean motion
15.33462593 rev/d
Perigee alt
464.0 km
Apogee alt
467.0 km
Semi-major
6,843.6 km
B*
5.4360e-4
RAAN
78.5953°
Arg perigee
94.1805°
Mean anomaly
265.9686°
Rev number
1,569

§ Raw data

STARLINK-368171 67882U 26035D   26145.07226502  .00017525  00000+0  54360-3 0  99992 67882  97.2855  78.5953 0002175  94.1805 265.9686 15.33462593 15692

JSON: /api/v1/satellites/67882 · /tle

For live sub-satellite position, see the globe view (requires WebGL).

§ Visibility from observer

Set your observer location to see the next 7 days of passes ≥ 10°. The values pass through the URL so the page stays shareable.

No JS? Fill the form by hand. The geolocation button needs JavaScript.